Location: Pine Mountain State Resort Park
(36.7364°N, 83.7376°W)
Time: 20:32:54
(UTC-04:00)

Hubble Space Telescope - Visible Passes

Search period start: 21 May 2018 00:00
Search period end: 31 May 2018 00:00
Orbit: 537 x 541 km, 28.5° (Epoch: 21 May)

Date Brightness Start Highest point End Pass type
(mag) Time Alt. Az. Time Alt. Az. Time Alt. Az.
28 May 2.6 05:39:42 10° SSW 05:42:33 18° SSE 05:45:23 10° ESE visible
29 May 2.4 05:29:15 11° SW 05:32:06 20° SSE 05:35:11 10° ESE visible
30 May 2.3 05:19:18 14° SSW 05:21:41 22° S 05:24:55 10° ESE visible
